sat.trackr.live / text

‹ back to catalog

NINGXIA-1 2

NORAD 44780 · 2019-076B

PAYLOAD ACTIVE UNKNOWN

§ Identity

Operator
Country
PRC
Launch date
2019-11-13
Launch site
TAISC
Launch vehicle
Mass (kg)
RCS (m²)

External: N2YO · Heavens-Above · Gunter

§ Orbital elements

Epoch: 2026-09-20T05:22:20.423136Z

Period
102.70 min
Inclination
45.0072°
Eccentricity
0.0006686
Mean motion
14.02128287 rev/d
Perigee alt
881.6 km
Apogee alt
891.3 km
Semi-major
7,264.6 km
B*
6.3812e-5
RAAN
115.5120°
Arg perigee
245.2474°
Mean anomaly
114.7665°
Rev number
35,119

§ Raw data

NINGXIA-1 21 44780U 19076B   26263.22384749 -.00000032  00000+0  63812-4 0  99932 44780  45.0072 115.5120 0006686 245.2474 114.7665 14.02128287351196

JSON: /api/v1/satellites/44780 · /tle

For live sub-satellite position, see the globe view (requires WebGL).

§ Visibility from observer

Set your observer location to see the next 7 days of passes ≥ 10°. The values pass through the URL so the page stays shareable.

No JS? Fill the form by hand. The geolocation button needs JavaScript.

§ Radio — SatNOGS DB

ModeDescriptionDownlinkUplink
FM S-band telemetry 2.289 GHz

1 transmitter · refreshed weekly from db.satnogs.org